This is the latest recevied weather packets stored in our database for station/object W7BL. If no packets are shown the sender has not sent any weather packets the latest 10 day(s).
| Time | Temp. | Humidity | Pressure | Rain* | Wind** | Luminosity | Snow |
|---|---|---|---|---|---|---|---|
| 1777773176 | 23.89° C | 30% | - | 0 mm | - | - | - |
| 1777772871 | 23.89° C | 27% | - | 0 mm | - | - | - |
| 1777772569 | 23.89° C | 27% | - | 0 mm | - | - | - |
| 1777772266 | 23.89° C | 27% | - | 0 mm | - | - | - |
| 1777771964 | 24.44° C | 27% | - | 0 mm | - | - | - |
| 1777771661 | 24.44° C | 27% | - | 0 mm | - | - | - |
| 1777771358 | 24.44° C | 27% | - | 0 mm | - | - | - |
| 1777771055 | 24.44° C | 27% | - | 0 mm | - | - | - |
| 1777770752 | 24.44° C | 27% | - | 0 mm | - | - | - |
| 1777770448 | 25° C | 25% | - | 0 mm | - | - | - |
| 1777770145 | 25° C | 25% | - | 0 mm | - | - | - |
| 1777769843 | 25.56° C | 25% | - | 0 mm | - | - | - |
| 1777769540 | 25° C | 26% | - | 0 mm | - | - | - |
| 1777769235 | 25° C | 25% | - | 0 mm | - | - | - |
| 1777768934 | 25.56° C | 25% | - | 0 mm | - | - | - |
| 1777768631 | 25.56° C | 25% | - | 0 mm | - | - | - |
| 1777768328 | 25.56° C | 26% | - | 0 mm | - | - | - |
| 1777768024 | 25.56° C | 26% | - | 0 mm | - | - | - |
| 1777767721 | 25.56° C | 27% | - | 0 mm | - | - | - |
| 1777767417 | 25° C | 27% | - | 0 mm | - | - | - |
| 1777767114 | 25° C | 26% | - | 0 mm | - | - | - |
| 1777766812 | 25.56° C | 26% | - | 0 mm | - | - | - |
| 1777766509 | 26.67° C | 22% | - | 0 mm | - | - | - |
| 1777766205 | 25.56° C | 20% | - | 0 mm | - | - | - |
| 1777765904 | 25.56° C | 20% | - | 0 mm | - | - | - |
* Rain latest hour (hover to see other rain measurements)
** Current wind speed in m/s (hover to see current wind gust speed)